Location: Cartignies
(50.0929°N, 3.8447°E)
Time: 14:16:52
(UTC+00:00)

Cosmos 1656 - Pass Details

Date: 12 January 2026
Orbit: 797 x 847 km, 71.1° (Epoch: 16 February)

Event Time Altitude Azimuth Distance (km) Brightness Sun altitude
Rises 18:27:24 0° 331° (NNW) 3,405 7.1 -21.8°
Reaches altitude 10° 18:29:53 10° 335° (NNW) 2,460 6.3 -22.2°
Maximum altitude 18:35:30 68° 58° (ENE) 893 3.5 -23.1°
Enters shadow 18:36:54 49° 120° (ESE) 1,055 3.8 -23.3°
